MMS 1 (40482 NORAD) Tracking and Keplerian Element Data

This shows tracking and keplerian element data for the satellite.

Feedback or suggestion? Click here.




ElementValue
Catalog40482
NameMMS 1
Epoch Orbit903
Epoch Day189.66666667
Epoch Year2018
RAAN314.89
Inclination8.4331
Eccentricity0.909018
Argument of Perigee164.2297
Mean Anonmoly319.2235
Mean Motion0.35519141
Decay Rate-1.13E-05
L11 40482U 15011A 18189.66666667 -.00001130 00000-0 00000+0 0 9997
L22 40482 8.4331 314.8900 9090180 164.2297 319.2235 0.35519141 9038

Live tracking and technical data element details for MMS 1 (NORAD 40482). MMS 1 can be tracked NOW for your location showing map with azimuth and elevation plus other details from your city location.

Track the satellite on the map from your city or location and see movement details for azimuth, elevation, latitude, longitude, range, height, and movement on the map or in text.







IsCatalogInMostPopularTable: catalog: 40482, numindb: 60
Update: records affected: 1



GetName: 40482 MMS 1

Hit Count: updated at: Sun, 15 Jul 2018 23:09:31 GMT